Location: Mainz-Finthen
(49.9906°N, 8.1713°E)
Time: 08:04:05
(UTC+00:00)

Envisat - Pass Details

Date: 02 October 2021
Orbit: 764 x 766 km, 98.2° (Epoch: 22 October)

Event Time Altitude Azimuth Distance (km) Brightness Sun altitude
Rises 04:34:43 0° 15° (NNE) 3,244 6.5 -9.5°
Reaches altitude 10° 04:37:03 10° 18° (NNE) 2,313 5.8 -9.2°
Maximum altitude 04:42:08 69° 102° (ESE) 822 3.4 -8.4°
Drops below altitude 10° 04:47:10 10° 186° (S) 2,295 5.4 -7.5°
Sets 04:49:29 0° 189° (S) 3,217 6.1 -7.2°
